TimeMST,TemperatureF,Dew PointF,Humidity,Sea Level PressureIn,VisibilityMPH,Wind Direction,Wind SpeedMPH,Gust SpeedMPH,PrecipitationIn,Events,Conditions,WindDirDegrees,DateUTC
12:53 AM,36.0,33.1,89,29.65,8.0,Calm,Calm,-,0.01,Rain,Light Rain,0,2013-03-09 07:53:00
1:53 AM,36.0,33.1,89,29.66,5.0,Calm,Calm,-,0.06,Rain,Light Rain,0,2013-03-09 08:53:00
2:18 AM,33.8,30.2,87,29.68,1.8,Calm,Calm,-,0.03,Snow,Light Snow,0,2013-03-09 09:18:00
2:26 AM,33.8,30.2,87,29.68,1.2,Calm,Calm,-,0.04,Snow,Light Snow,0,2013-03-09 09:26:00
2:44 AM,33.8,32.0,93,29.67,0.8,Calm,Calm,-,0.06,Snow,Light Snow,0,2013-03-09 09:44:00
2:53 AM,33.1,32.0,96,29.65,0.8,Calm,Calm,-,0.08,Snow,Light Snow,0,2013-03-09 09:53:00
3:01 AM,33.8,32.0,93,29.66,1.0,Calm,Calm,-,0.00,Snow,Light Snow,0,2013-03-09 10:01:00
3:15 AM,33.8,32.0,93,29.66,1.2,Calm,Calm,-,0.02,Snow,Light Snow,0,2013-03-09 10:15:00
3:22 AM,33.8,32.0,93,29.66,1.2,Calm,Calm,-,0.03,Snow,Light Snow,0,2013-03-09 10:22:00
3:53 AM,33.1,32.0,96,29.65,1.0,Calm,Calm,-,0.09,Snow,Light Snow,0,2013-03-09 10:53:00
4:02 AM,33.8,30.2,87,29.66,0.8,Calm,Calm,-,0.03,Snow,Light Snow,0,2013-03-09 11:02:00
4:31 AM,33.8,32.0,93,29.66,1.2,Calm,Calm,-,0.12,Snow,Light Snow,0,2013-03-09 11:31:00
4:40 AM,32.0,32.0,100,29.67,1.5,Calm,Calm,-,0.14,Snow,Light Snow,0,2013-03-09 11:40:00
4:53 AM,33.1,32.0,96,29.66,1.8,Calm,Calm,-,0.17,Snow,Light Snow,0,2013-03-09 11:53:00
5:02 AM,33.8,32.0,93,29.67,1.2,Calm,Calm,-,0.03,Snow,Light Snow,0,2013-03-09 12:02:00
5:10 AM,32.0,30.2,93,29.68,0.8,Calm,Calm,-,0.05,Snow,Light Snow,0,2013-03-09 12:10:00
5:21 AM,32.0,30.2,93,29.68,0.5,Calm,Calm,-,0.08,Fog-Snow,Snow,0,2013-03-09 12:21:00
5:31 AM,33.8,30.2,87,29.69,0.8,Calm,Calm,-,0.10,Snow,Light Snow,0,2013-03-09 12:31:00
5:40 AM,33.8,32.0,93,29.69,1.5,Calm,Calm,-,0.11,Snow,Light Snow,0,2013-03-09 12:40:00
5:43 AM,32.0,32.0,100,29.69,2.0,Calm,Calm,-,0.11,Snow,Light Snow,0,2013-03-09 12:43:00
5:47 AM,33.8,32.0,93,29.69,3.0,Calm,Calm,-,0.11,Snow,Light Snow,0,2013-03-09 12:47:00
5:53 AM,33.1,32.0,96,29.69,5.0,Calm,Calm,-,0.12,Rain,Light Rain,0,2013-03-09 12:53:00
6:53 AM,34.0,32.0,92,29.72,10.0,East,6.9,-,0.01,,Overcast,80,2013-03-09 13:53:00
7:00 AM,33.8,30.2,87,29.71,10.0,ENE,5.8,-,0.00,,Overcast,60,2013-03-09 14:00:00
7:53 AM,37.0,28.0,70,29.74,10.0,NE,12.7,-,0.00,,Overcast,40,2013-03-09 14:53:00
8:53 AM,37.0,28.0,70,29.77,10.0,NNE,19.6,27.6,N/A,,Overcast,30,2013-03-09 15:53:00
9:53 AM,37.0,27.0,67,29.80,10.0,NE,17.3,-,N/A,,Overcast,40,2013-03-09 16:53:00
10:53 AM,37.0,28.0,70,29.83,10.0,NE,15.0,-,N/A,,Overcast,50,2013-03-09 17:53:00
11:53 AM,39.9,27.0,60,29.86,10.0,NNE,17.3,-,N/A,,Mostly Cloudy,30,2013-03-09 18:53:00
12:53 PM,39.9,26.1,58,29.88,10.0,NNE,18.4,25.3,N/A,,Mostly Cloudy,20,2013-03-09 19:53:00
1:53 PM,39.9,26.1,58,29.90,10.0,NNE,11.5,-,N/A,,Overcast,30,2013-03-09 20:53:00
2:53 PM,41.0,26.1,55,29.93,10.0,NNE,12.7,-,N/A,,Overcast,30,2013-03-09 21:53:00
3:53 PM,41.0,28.0,60,29.96,10.0,NE,12.7,-,N/A,,Overcast,50,2013-03-09 22:53:00
5:53 PM,37.9,27.0,65,30.02,10.0,NE,15.0,-,N/A,,Overcast,50,2013-03-10 00:53:00
6:53 PM,36.0,27.0,70,30.08,10.0,East,6.9,-,N/A,,Overcast,80,2013-03-10 01:53:00
7:53 PM,35.1,25.0,67,30.11,10.0,Variable,5.8,-,N/A,,Mostly Cloudy,0,2013-03-10 02:53:00
8:53 PM,36.0,23.0,59,30.13,10.0,North,13.8,-,N/A,,Overcast,350,2013-03-10 03:53:00
9:53 PM,36.0,21.9,57,30.16,10.0,NNE,11.5,-,N/A,,Overcast,20,2013-03-10 04:53:00
10:53 PM,35.1,21.0,57,30.19,10.0,NNE,9.2,-,N/A,,Overcast,30,2013-03-10 05:53:00
11:53 PM,34.0,19.9,56,30.19,10.0,NNE,10.4,-,N/A,,Overcast,30,2013-03-10 06:53:00